TimeEDT,TemperatureF,Dew PointF,Humidity,Sea Level PressureIn,VisibilityMPH,Wind Direction,Wind SpeedMPH,Gust SpeedMPH,PrecipitationIn,Events,Conditions,WindDirDegrees,DateUTC
12:35 AM,-9999,-9999,N/A,30.03,7.0,Calm,Calm,-,N/A,,Clear,0,2012-10-06 04:35:00
7:55 AM,-9999,-9999,N/A,29.98,7.0,Calm,Calm,-,N/A,,Scattered Clouds,0,2012-10-06 11:55:00
8:15 AM,-9999,-9999,N/A,29.98,7.0,Calm,Calm,-,N/A,,Scattered Clouds,0,2012-10-06 12:15:00
8:35 AM,-9999,-9999,N/A,29.98,7.0,Calm,Calm,-,N/A,,Clear,0,2012-10-06 12:35:00
8:55 AM,-9999,-9999,N/A,29.98,10.0,Calm,Calm,-,N/A,,Clear,0,2012-10-06 12:55:00
9:15 AM,68.0,68.0,100,29.98,7.0,Calm,Calm,-,N/A,,Clear,0,2012-10-06 13:15:00
9:35 AM,69.8,69.8,100,29.98,10.0,Calm,Calm,-,N/A,,Clear,0,2012-10-06 13:35:00
9:55 AM,69.8,69.8,100,29.98,10.0,SW,5.8,-,N/A,,Clear,230,2012-10-06 13:55:00
10:15 AM,71.6,71.6,100,29.98,10.0,SW,5.8,-,N/A,,Clear,220,2012-10-06 14:15:00
10:35 AM,71.6,62.6,73,29.97,10.0,SW,3.5,-,N/A,,Clear,220,2012-10-06 14:35:00
10:55 AM,73.4,62.6,69,29.97,10.0,SSW,3.5,-,N/A,,Clear,210,2012-10-06 14:55:00
11:15 AM,73.4,62.6,69,29.96,10.0,Calm,Calm,-,N/A,,Clear,0,2012-10-06 15:15:00
11:35 AM,77.0,62.6,61,29.95,10.0,SW,4.6,-,N/A,,Clear,220,2012-10-06 15:35:00
11:55 AM,77.0,60.8,57,29.95,7.0,SW,5.8,-,N/A,,Clear,230,2012-10-06 15:55:00
12:15 PM,78.8,59.0,51,29.94,10.0,SW,5.8,-,N/A,,Clear,220,2012-10-06 16:15:00
12:35 PM,78.8,59.0,51,29.93,10.0,SW,5.8,-,N/A,,Clear,230,2012-10-06 16:35:00
12:55 PM,78.8,59.0,51,29.93,7.0,SSW,3.5,-,N/A,,Clear,210,2012-10-06 16:55:00
1:15 PM,78.8,57.2,47,29.92,10.0,West,6.9,-,N/A,,Clear,280,2012-10-06 17:15:00
1:35 PM,80.6,59.0,48,29.92,10.0,West,8.1,-,N/A,,Clear,270,2012-10-06 17:35:00
1:55 PM,80.6,57.2,45,29.91,10.0,WNW,4.6,-,N/A,,Clear,290,2012-10-06 17:55:00
2:15 PM,80.6,57.2,45,29.90,10.0,SW,3.5,-,N/A,,Clear,220,2012-10-06 18:15:00
2:35 PM,80.6,57.2,45,29.90,10.0,SSW,5.8,-,N/A,,Clear,210,2012-10-06 18:35:00
2:55 PM,80.6,59.0,48,29.91,10.0,WSW,4.6,-,N/A,,Clear,240,2012-10-06 18:55:00
3:15 PM,80.6,59.0,48,29.90,10.0,West,3.5,-,N/A,,Clear,270,2012-10-06 19:15:00
3:35 PM,80.6,59.0,48,29.90,10.0,WSW,4.6,-,N/A,,Scattered Clouds,250,2012-10-06 19:35:00
3:55 PM,80.6,59.0,48,29.90,10.0,NW,3.5,-,N/A,,Scattered Clouds,310,2012-10-06 19:55:00
4:15 PM,78.8,60.8,54,29.90,10.0,West,3.5,-,N/A,,Mostly Cloudy,270,2012-10-06 20:15:00
4:35 PM,78.8,60.8,54,29.90,10.0,Calm,Calm,-,N/A,,Overcast,0,2012-10-06 20:35:00
4:55 PM,78.8,60.8,54,29.90,10.0,West,3.5,-,N/A,,Mostly Cloudy,280,2012-10-06 20:55:00
5:15 PM,77.0,60.8,57,29.90,10.0,Calm,Calm,-,N/A,,Mostly Cloudy,0,2012-10-06 21:15:00
5:35 PM,75.2,66.2,73,29.90,10.0,Calm,Calm,-,N/A,,Scattered Clouds,0,2012-10-06 21:35:00
5:55 PM,73.4,68.0,83,29.91,10.0,Calm,Calm,-,N/A,,Mostly Cloudy,0,2012-10-06 21:55:00
6:15 PM,73.4,69.8,88,29.91,10.0,Calm,Calm,-,N/A,,Mostly Cloudy,0,2012-10-06 22:15:00
6:35 PM,69.8,69.8,100,29.92,7.0,Calm,Calm,-,N/A,,Scattered Clouds,0,2012-10-06 22:35:00
7:15 PM,-9999,-9999,N/A,29.93,7.0,Calm,Calm,-,N/A,,Clear,0,2012-10-06 23:15:00
7:35 PM,-9999,-9999,N/A,29.94,7.0,Calm,Calm,-,N/A,,Clear,0,2012-10-06 23:35:00
7:55 PM,-9999,-9999,N/A,29.95,10.0,Calm,Calm,-,N/A,,Mostly Cloudy,0,2012-10-06 23:55:00
8:15 PM,-9999,-9999,N/A,29.95,10.0,Calm,Calm,-,N/A,,Overcast,0,2012-10-07 00:15:00
8:35 PM,69.8,69.8,100,29.96,10.0,NNW,3.5,-,N/A,,Mostly Cloudy,340,2012-10-07 00:35:00
8:55 PM,-9999,-9999,N/A,29.97,10.0,Calm,Calm,-,N/A,,Scattered Clouds,0,2012-10-07 00:55:00
9:15 PM,69.8,69.8,100,29.97,10.0,Calm,Calm,-,N/A,,Mostly Cloudy,0,2012-10-07 01:15:00
9:35 PM,69.8,69.8,100,29.97,10.0,Calm,Calm,-,N/A,,Mostly Cloudy,0,2012-10-07 01:35:00
9:55 PM,68.0,68.0,100,29.98,10.0,Calm,Calm,-,N/A,,Mostly Cloudy,0,2012-10-07 01:55:00
10:15 PM,68.0,68.0,100,29.97,10.0,North,3.5,-,N/A,,Scattered Clouds,10,2012-10-07 02:15:00
10:35 PM,-9999,-9999,N/A,29.98,10.0,Calm,Calm,-,N/A,,Mostly Cloudy,0,2012-10-07 02:35:00
10:55 PM,-9999,-9999,N/A,29.98,10.0,Calm,Calm,-,N/A,,Mostly Cloudy,0,2012-10-07 02:55:00
11:15 PM,-9999,-9999,N/A,29.99,10.0,Calm,Calm,-,N/A,,Scattered Clouds,0,2012-10-07 03:15:00
11:35 PM,64.4,64.4,100,29.98,10.0,Calm,Calm,-,N/A,,Mostly Cloudy,0,2012-10-07 03:35:00